Date String (YYYY-MM-DD hh:mm:ss) UTC,Instrument flags,absolute air pressure of the measurement (hPa),sample flow rate (lpm),inlet stack bypass flow (lpm),air temperature of the measurement (°C),ambient temperature measured by the external sensor (°C),aerosol sample conditioner tube jacket temperature (°C),OPC LED temperature (°C),internal box temperature (°C),relative humidity of the measurement (%),span deviation,mass concentration of particles derived from Lorenz-Mie calculation of OPC scattering (μg/m³),mass concentration of particles derived from Lorenz-Mie calculation of OPC scattering (μg/m³),mass concentration of particles derived from Lorenz-Mie calculation of OPC scattering (μg/m³)
DateTimeUTC,F1_M11,P_M11,Q1_M11,Q2_M11,T1_M11,T2_M11,T3_M11,T4_M11,T5_M11,U1_M11,ZSPAN_M11,X0_M11,X2_M11,X1_M11
2023-12-04 00:00:00,SystemResetWarning,0825.8,5.00,000.00,018.6,017.4,000.0,027.2,020.0,16.5,0000.0,0005.02,0002.79,0001.88
2023-12-04 00:01:00,SystemResetWarning,0825.9,5.00,000.00,018.6,017.4,000.0,027.2,020.0,16.5,0000.0,0005.32,0002.86,0001.88
2023-12-04 00:02:00,SystemResetWarning,0825.9,5.00,000.00,018.6,017.4,000.0,027.2,020.0,16.6,0000.0,0005.32,0002.88,0001.88
2023-12-04 00:03:00,SystemResetWarning,0825.9,5.00,000.00,018.6,017.4,000.0,027.2,020.0,16.7,0000.0,0005.59,0002.83,0001.86
2023-12-04 00:04:00,SystemResetWarning,0825.9,5.00,000.00,018.6,017.4,000.0,027.2,020.0,16.8,0000.0,0006.23,0002.79,0001.85
2023-12-04 00:05:00,SystemResetWarning,0825.9,5.00,000.00,018.6,017.4,000.0,027.1,020.0,16.8,0000.0,0006.88,0002.71,0001.86
2023-12-04 00:06:00,SystemResetWarning,0825.9,5.00,000.00,018.6,017.4,000.0,027.1,020.0,16.8,0000.0,0006.84,0002.66,0001.84
2023-12-04 00:07:00,SystemResetWarning,0825.9,4.99,000.00,018.6,017.4,000.0,027.1,020.0,16.8,0000.0,0006.74,0002.63,0001.82
2023-12-04 00:08:00,SystemResetWarning,0825.9,5.00,000.00,018.7,017.4,000.0,027.2,020.0,16.8,0000.0,0006.55,0002.56,0001.80
2023-12-04 00:09:00,SystemResetWarning,0825.9,5.00,000.00,018.7,017.4,000.0,027.2,020.0,16.5,0000.0,0006.23,0002.51,0001.80
2023-12-04 00:10:00,SystemResetWarning,0825.9,4.99,000.00,018.6,017.4,000.0,027.2,020.0,16.4,0000.0,0006.22,0002.56,0001.81
2023-12-04 00:11:00,SystemResetWarning,0825.9,5.00,000.00,018.6,017.4,000.0,027.2,020.0,16.3,0000.0,0006.25,0002.62,0001.84
2023-12-04 00:12:00,SystemResetWarning,0825.9,5.00,000.00,018.6,017.4,000.0,027.2,020.0,16.3,0000.0,0006.59,0002.63,0001.86
2023-12-04 00:13:00,SystemResetWarning,0825.9,5.00,000.00,018.6,017.4,000.0,027.2,020.0,16.1,0000.0,0006.73,0002.62,0001.87
2023-12-04 00:14:00,SystemResetWarning,0825.9,5.00,000.00,018.6,017.4,000.0,027.2,020.0,16.3,0000.0,0006.52,0002.65,0001.89
2023-12-04 00:15:00,SystemResetWarning,0826.1,5.00,000.00,018.6,017.4,000.0,027.2,020.0,16.3,0000.0,0005.66,0002.68,0001.92
2023-12-04 00:16:00,SystemResetWarning,0826.2,5.01,000.00,018.6,017.4,000.0,027.2,020.0,16.2,0000.0,0004.80,0002.69,0001.93
2023-12-04 00:17:00,SystemResetWarning,0826.1,5.00,000.00,018.6,017.4,000.0,027.2,020.0,16.3,0000.0,0004.99,0002.80,0001.95
2023-12-04 00:18:00,SystemResetWarning,0826.0,5.00,000.00,018.6,017.4,000.0,027.2,020.0,17.3,0000.0,0005.48,0002.86,0001.97
2023-12-04 00:19:00,SystemResetWarning,0826.0,4.98,000.00,018.6,017.4,000.0,027.2,020.0,17.8,0000.0,0006.36,0002.89,0001.97
2023-12-04 00:20:00,SystemResetWarning,0825.9,5.00,000.00,018.6,017.4,000.0,027.1,020.0,17.8,0000.0,0006.46,0002.91,0001.96
2023-12-04 00:21:00,SystemResetWarning,0825.9,5.01,000.00,018.6,017.4,000.0,027.1,020.0,17.7,0000.0,0006.59,0002.89,0001.94
2023-12-04 00:22:00,SystemResetWarning,0825.8,5.00,000.00,018.6,017.4,000.0,027.1,020.0,17.1,0000.0,0006.69,0002.87,0001.91
2023-12-04 00:23:00,SystemResetWarning,0825.9,5.00,000.00,018.6,017.3,000.0,027.1,020.0,17.1,0000.0,0006.31,0002.86,0001.91
2023-12-04 00:24:00,SystemResetWarning,0825.9,5.00,000.00,018.6,017.3,000.0,027.1,020.0,16.8,0000.0,0006.55,0002.88,0001.91
2023-12-04 00:25:00,SystemResetWarning,0825.9,5.00,000.00,018.6,017.3,000.0,027.1,020.0,17.0,0000.0,0006.65,0002.90,0001.91
2023-12-04 00:26:00,SystemResetWarning,0825.9,5.00,000.00,018.6,017.4,000.0,027.1,020.0,16.4,0000.0,0006.77,0002.95,0001.95
2023-12-04 00:27:00,SystemResetWarning,0825.9,5.00,000.00,018.6,017.4,000.0,027.1,020.0,16.4,0000.0,0006.84,0003.01,0001.98
2023-12-04 00:28:00,SystemResetWarning,0825.9,5.00,000.00,018.6,017.4,000.0,027.1,020.0,16.7,0000.0,0006.75,0003.00,0002.03
2023-12-04 00:29:00,SystemResetWarning,0826.1,5.00,000.00,018.6,017.4,000.0,027.1,020.0,16.8,0000.0,0006.45,0003.05,0002.10
2023-12-04 00:30:00,SystemResetWarning,0826.2,5.00,000.00,018.6,017.3,000.0,027.1,020.0,17.0,0000.0,0006.10,0003.09,0002.13
2023-12-04 00:31:00,SystemResetWarning,0826.2,5.00,000.00,018.6,017.3,000.0,027.1,020.0,17.5,0000.0,0006.96,0003.12,0002.19
2023-12-04 00:32:00,SystemResetWarning,0826.2,5.00,000.00,018.6,017.3,000.0,027.1,020.0,18.2,0000.0,0007.09,0003.16,0002.23
2023-12-04 00:33:00,SystemResetWarning,0826.1,5.00,000.00,018.6,017.3,000.0,027.1,020.0,18.5,0000.0,0007.63,0003.19,0002.26
2023-12-04 00:34:00,SystemResetWarning,0826.0,4.99,000.00,018.6,017.4,000.0,027.1,020.0,18.7,0000.0,0007.88,0003.23,0002.28
2023-12-04 00:35:00,SystemResetWarning,0825.9,5.00,000.00,018.6,017.4,000.0,027.1,020.0,18.7,0000.0,0008.22,0003.21,0002.28
2023-12-04 00:36:00,SystemResetWarning,0825.9,5.00,000.00,018.6,017.4,000.0,027.1,020.0,17.9,0000.0,0008.19,0003.21,0002.30
2023-12-04 00:37:00,SystemResetWarning,0825.9,5.00,000.00,018.6,017.4,000.0,027.1,020.0,17.0,0000.0,0008.35,0003.23,0002.28
2023-12-04 00:38:00,SystemResetWarning,0825.9,5.01,000.00,018.6,017.4,000.0,027.1,020.0,16.9,0000.0,0008.37,0003.24,0002.27
2023-12-04 00:39:00,SystemResetWarning,0825.9,5.01,000.00,018.6,017.4,000.0,027.1,020.0,16.7,0000.0,0008.44,0003.26,0002.29
2023-12-04 00:40:00,SystemResetWarning,0825.9,4.99,000.00,018.6,017.4,000.0,027.1,020.0,16.6,0000.0,0008.54,0003.28,0002.32
2023-12-04 00:41:00,SystemResetWarning,0825.9,4.99,000.00,018.6,017.4,000.0,027.1,020.0,16.9,0000.0,0008.65,0003.34,0002.38
2023-12-04 00:42:00,SystemResetWarning,0825.9,5.00,000.00,018.6,017.3,000.0,027.1,020.0,16.7,0000.0,0008.13,0003.37,0002.47
2023-12-04 00:43:00,SystemResetWarning,0826.0,5.00,000.00,018.6,017.3,000.0,027.1,020.0,16.6,0000.0,0008.08,0003.37,0002.54
2023-12-04 00:44:00,SystemResetWarning,0826.2,5.00,000.00,018.6,017.3,000.0,027.2,020.0,16.4,0000.0,0007.58,0003.37,0002.58
2023-12-04 00:45:00,SystemResetWarning,0826.2,4.99,000.00,018.6,017.3,000.0,027.1,020.0,16.4,0000.0,0007.31,0003.38,0002.61
2023-12-04 00:46:00,SystemResetWarning,0826.2,5.01,000.00,018.6,017.3,000.0,027.1,020.0,16.5,0000.0,0006.88,0003.40,0002.64
2023-12-04 00:47:00,SystemResetWarning,0826.1,5.01,000.00,018.6,017.3,000.0,027.1,020.0,16.7,0000.0,0007.47,0003.42,0002.66
2023-12-04 00:48:00,SystemResetWarning,0826.1,5.00,000.00,018.6,017.3,000.0,027.1,020.0,17.0,0000.0,0007.46,0003.39,0002.68
2023-12-04 00:49:00,SystemResetWarning,0826.2,5.00,000.00,018.6,017.3,000.0,027.1,020.0,17.2,0000.0,0007.82,0003.37,0002.70
2023-12-04 00:50:00,SystemResetWarning,0826.1,4.99,000.00,018.6,017.3,000.0,027.1,020.0,17.3,0000.0,0008.09,0003.36,0002.69
2023-12-04 00:51:00,SystemResetWarning,0826.1,5.00,000.00,018.6,017.3,000.0,027.1,020.0,17.5,0000.0,0008.31,0003.32,0002.66
2023-12-04 00:52:00,SystemResetWarning,0826.1,5.01,000.00,018.7,017.5,000.0,027.1,020.3,17.9,0000.0,0008.24,0003.28,0002.61
2023-12-04 00:53:00,SystemResetWarning,0826.2,5.00,000.00,018.8,018.3,000.0,027.1,020.7,18.0,0000.0,0009.28,0003.25,0002.53
2023-12-04 00:54:00,SystemResetWarning,0826.2,4.99,000.00,018.8,018.5,000.0,027.1,020.5,17.9,0000.0,0009.97,0003.22,0002.46
2023-12-04 00:55:00,SystemResetWarning,0826.2,4.99,000.00,018.8,018.5,000.0,027.1,020.3,17.9,0000.0,0010.13,0003.25,0002.45
2023-12-04 00:56:00,SystemResetWarning,0826.3,5.00,000.00,018.8,018.4,000.0,027.1,020.1,18.0,0000.0,0010.38,0003.29,0002.51
2023-12-04 00:57:00,SystemResetWarning,0826.2,5.01,000.00,018.8,018.3,000.0,027.1,020.0,18.1,0000.0,0010.28,0003.34,0002.56
2023-12-04 00:58:00,SystemResetWarning,0826.2,5.00,000.00,018.8,018.2,000.0,027.1,020.0,18.2,0000.0,0010.04,0003.37,0002.62
2023-12-04 00:59:00,SystemResetWarning,0826.2,5.00,000.00,018.7,018.1,000.0,027.1,020.0,17.9,0000.0,0009.87,0003.40,0002.66
